Temp
-3 -4 -4 -4 -4 -4 -5 -5 -5 -4 -4 -4 -5 -5 -6 -6 -6 -6 -6 -6 -6 -6 -6 -7 -5 -6 -6 -6 -6 -7 -7 -7
-5 -5 -4 -4 -4 -4 -4 -4 -4 -3 -3 -2 -4 -5 -6 -6 -5 -5 -5 -6 -6 -6 -6 -7 -6 -6 -6 -6 -7 -7 -7 -7
-5 -5 -4 -4 -3 -3 -4 -4 -3 -3 -2 -3 -4 -5 -6 -6 -6 -6 -6 -6 -6 -6 -6 -6 -7 -6 -6 -7 -7 -7 -7 -7
-4 -5 -5 -4 -5 -5 -4 -2 -2 -2 -2 -2 -4 -5 -5 -6 -6 -6 -6 -6 -6 -7 -7 -7 -7 -6 -6 -7 -7 -7 -7 -7
-3 -5 -5 -4 -4 -5 -4 -3 -3 -3 -2 -3 -4 -5 -5 -6 -6 -6 -6 -6 -6 -6 -7 -7 -7 -6 -7 -7 -7 -7 -7 -7
-3 -4 -5 -4 -4 -4 -3 -3 -2 -2 -2 -3 -4 -4 -5 -6 -7 -6 -7 -6 -5 -5 -6 -7 -7 -7 -7 -7 -7 -7 -7 -7
-4 -4 -5 -4 -4 -4 -3 -2 -2 -2 -2 -3 -4 -4 -4 -6 -6 -6 -6 -6 -5 -5 -5 -6 -6 -7 -8 -8 -8 -7 -7 -6
-5 -4 -5 -5 -3 -3 -2 -3 -4 -3 -3 -3 -4 -4 -5 -5 -6 -6 -5 -5 -5 -5 -6 -6 -6 -5 -7 -8 -7 -8 -7 -7
-6 -6 -6 -5 -3 -3 -3 -3 -4 -3 -3 -3 -4 -4 -4 -4 -4 -5 -6 -6 -6 -6 -6 -6 -5 -6 -6 -7 -7 -7 -7 -7
-8 -9 -8 -3 -5 -6 -5 -4 -4 -4 -4 -4 -5 -5 -4 -4 -5 -5 -6 -6 -6 -6 -6 -5 -6 -6 -5 -7 -7 -7 -7 -7
-10 -9 -7 -6 -7 -7 -7 -6 -5 -4 -4 -4 -5 -6 -5 -4 -5 -5 -6 -6 -6 -6 -6 -6 -5 -6 -6 -6 -6 -7 -7 -7
-12 -11 -10 -8 -9 -8 -7 -8 -6 -5 -5 -6 -6 -4 -5 -5 -5 -5 -5 -6 -7 -7 -6 -6 -6 -7 -7 -7 -7 -7 -6 -7
-13 -12 -11 -10 -10 -10 -10 -6 -7 -6 -7 -8 -7 -6 -7 -6 -6 -5 -5 -6 -6 -7 -7 -7 -7 -8 -7 -7 -7 -7 -7 -8
-13 -14 -13 -12 -11 -11 -11 -9 -8 -7 -8 -8 -9 -8 -8 -7 -7 -6 -5 -6 -6 -6 -7 -8 -7 -8 -8 -8 -9 -8 -9 -8
-15 -13 -13 -13 -12 -11 -11 -11 -10 -8 -8 -8 -8 -9 -9 -8 -7 -7 -6 -6 -6 -7 -8 -8 -8 -8 -9 -8 -9 -9 -9 -9
-16 -15 -13 -14 -12 -12 -11 -11 -11 -10 -9 -9 -8 -9 -9 -9 -8 -7 -7 -7 -7 -7 -8 -8 -8 -8 -8 -9 -9 -8 -8 -9
-16 -15 -13 -13 -13 -12 -11 -11 -11 -11 -11 -9 -9 -9 -9 -9 -9 -9 -8 -7 -7 -7 -8 -9 -9 -9 -8 -8 -8 -8 -9 -8
-17 -15 -14 -12 -11 -11 -11 -11 -11 -11 -10 -9 -9 -9 -9 -9 -9 -9 -8 -8 -8 -9 -9 -9 -9 -8 -8 -8 -8 -8 -8 -9
-17 -14 -13 -13 -11 -10 -12 -12 -10 -10 -11 -10 -10 -10 -9 -9 -9 -9 -9 -9 -8 -9 -9 -9 -8 -7 -7 -7 -7 -8 -8 -7
Height
5810 5816 5815 5821 5816 5831 5825 5828 5827 5829 5833 5840 5847 5854 5858 5860 5862 5868 5872 5878 5881 5884 5885 5886 5887 5888 5889 5890 5892 5893 5894 5895
5802 5800 5801 5807 5818 5816 5813 5815 5816 5820 5826 5831 5840 5848 5855 5857 5858 5863 5868 5872 5875 5881 5882 5882 5885 5885 5885 5886 5888 5889 5890 5890
5787 5783 5797 5802 5802 5803 5806 5808 5811 5815 5818 5829 5836 5843 5848 5853 5856 5858 5861 5865 5870 5876 5878 5880 5880 5880 5882 5882 5884 5885 5886 5887
5772 5782 5790 5790 5793 5795 5795 5804 5806 5808 5811 5823 5830 5837 5843 5849 5851 5853 5856 5861 5862 5867 5872 5874 5876 5877 5877 5878 5879 5881 5882 5883
5765 5767 5768 5770 5780 5786 5793 5796 5794 5801 5807 5821 5826 5827 5832 5838 5843 5847 5851 5855 5856 5855 5862 5866 5868 5871 5872 5874 5876 5875 5876 5878
5747 5755 5760 5763 5769 5779 5785 5780 5791 5791 5804 5815 5820 5822 5825 5829 5836 5841 5844 5848 5851 5852 5854 5858 5860 5862 5866 5869 5871 5871 5871 5873
5729 5738 5745 5749 5756 5767 5768 5776 5777 5795 5793 5806 5815 5818 5820 5824 5829 5831 5835 5839 5842 5845 5847 5852 5851 5854 5859 5862 5865 5867 5868 5870
5714 5721 5732 5734 5744 5755 5759 5766 5770 5782 5783 5797 5809 5809 5811 5814 5819 5823 5826 5829 5833 5837 5840 5844 5848 5851 5852 5856 5860 5862 5863 5866
5696 5706 5712 5723 5734 5744 5750 5753 5760 5767 5781 5789 5796 5802 5804 5807 5809 5813 5818 5821 5823 5826 5830 5837 5843 5844 5847 5850 5854 5856 5858 5860
5677 5687 5695 5719 5727 5731 5735 5742 5749 5756 5770 5775 5782 5791 5797 5800 5802 5805 5810 5814 5818 5821 5826 5830 5835 5839 5843 5842 5845 5849 5851 5853
5659 5671 5684 5700 5709 5714 5723 5731 5739 5746 5756 5765 5771 5777 5783 5789 5793 5797 5801 5806 5812 5816 5820 5823 5826 5831 5833 5835 5837 5840 5843 5845
5646 5653 5666 5683 5694 5701 5714 5715 5730 5737 5744 5752 5759 5765 5772 5782 5786 5791 5794 5798 5802 5807 5811 5814 5817 5822 5825 5827 5830 5834 5838 5838
5631 5636 5652 5668 5684 5692 5698 5716 5721 5728 5735 5743 5748 5757 5768 5771 5778 5781 5784 5787 5790 5795 5801 5805 5808 5811 5814 5817 5820 5826 5829 5830
5619 5627 5643 5657 5675 5685 5693 5702 5713 5720 5727 5734 5741 5747 5752 5761 5767 5775 5777 5781 5783 5786 5788 5791 5794 5796 5803 5806 5813 5816 5819 5819
5603 5620 5641 5654 5666 5677 5688 5695 5702 5711 5719 5725 5733 5739 5744 5750 5758 5765 5769 5772 5774 5776 5779 5782 5785 5787 5789 5795 5798 5801 5802 5803
5592 5612 5631 5647 5660 5669 5677 5686 5695 5702 5710 5716 5723 5729 5735 5741 5746 5753 5759 5761 5763 5765 5767 5770 5773 5778 5780 5783 5785 5785 5786 5791
5585 5604 5622 5639 5654 5660 5668 5677 5686 5693 5700 5708 5715 5721 5728 5732 5736 5740 5746 5750 5752 5753 5755 5756 5758 5761 5763 5765 5767 5770 5773 5774
5577 5603 5621 5641 5652 5656 5662 5669 5677 5683 5689 5697 5705 5713 5718 5722 5725 5729 5733 5736 5738 5739 5739 5741 5746 5748 5749 5748 5746 5748 5750 5754
5569 5591 5613 5629 5626 5620 5646 5656 5663 5672 5678 5687 5693 5699 5704 5708 5713 5718 5721 5723 5724 5725 5726 5731 5733 5733 5733 5733 5730 5731 5732 5733
Wind_Speed
35 31 35 33 40 32 45 44 47 42 38 31 33 30 28 23 23 19 17 11 4 5 10 22 19 13 9 7 7 7 8 14
36 40 43 40 30 38 45 47 46 37 35 30 32 32 27 30 23 15 15 12 10 8 5 16 11 10 8 12 8 9 9 11
44 51 43 40 43 43 43 45 41 34 29 30 27 32 30 28 24 22 19 15 11 10 10 12 16 15 13 13 11 8 10 14
54 46 42 47 45 47 49 40 36 36 34 22 23 29 31 32 32 29 25 22 19 16 17 17 16 13 16 14 12 10 14 16
57 56 58 58 54 51 45 44 46 42 31 21 20 23 37 40 38 36 30 27 27 28 27 23 18 14 16 17 12 15 16 16
64 60 58 60 59 54 50 55 44 44 34 20 25 28 34 45 44 39 36 34 36 30 30 30 23 17 19 15 16 18 17 17
70 67 66 64 62 56 58 54 55 38 42 32 25 29 29 42 46 47 43 38 41 31 35 34 24 24 25 22 18 21 19 10
78 74 69 71 68 63 61 57 56 48 49 37 26 34 35 39 49 51 46 43 45 40 27 25 30 26 26 29 22 22 22 12
84 79 76 74 70 67 62 61 59 56 46 40 36 36 38 37 39 45 50 47 45 44 30 29 19 23 28 25 25 24 23 21
87 81 81 72 67 67 66 65 62 60 52 49 42 37 37 41 44 49 51 51 45 43 41 39 32 29 30 31 30 32 32 29
88 85 84 80 74 70 65 65 64 64 59 55 50 43 42 42 44 45 53 54 53 48 47 47 44 32 34 38 35 33 35 35
87 87 86 83 77 75 68 67 61 63 62 55 56 53 47 40 41 44 47 55 57 54 52 52 49 37 33 34 39 41 43 38
92 89 85 81 74 72 64 70 66 62 62 55 53 52 43 42 39 44 47 51 57 56 54 54 49 46 46 46 45 40 43 44
89 87 78 75 69 55 48 60 67 61 58 59 54 49 45 41 40 36 42 48 53 56 57 56 56 52 48 45 43 42 44 43
76 85 81 62 58 60 49 40 47 59 59 54 55 53 50 47 43 34 37 37 41 59 58 55 52 53 51 52 45 48 51 53
51 62 80 57 55 55 56 52 46 44 56 54 52 55 52 52 47 40 39 40 42 44 53 65 67 59 57 55 58 60 57 56
49 41 58 59 54 54 60 61 59 57 51 57 54 55 58 56 53 50 43 42 44 47 48 51 51 54 62 67 73 70 61 68
38 52 39 60 48 59 63 60 62 64 65 62 54 55 57 59 58 56 52 52 52 54 59 61 56 54 56 65 64 65 67 67
43 47 50 52 35 31 54 51 63 64 66 62 60 57 60 62 61 58 58 58 58 62 62 55 50 54 59 60 63 68 74 75
Wind_Direction
240 234 235 233 234 242 235 241 245 250 246 239 224 223 217 204 194 194 171 143 128 243 328 266 257 249 257 263 274 288 267 241
230 234 228 230 236 235 238 236 241 252 250 241 221 217 216 212 211 203 187 187 185 257 288 234 253 248 284 274 274 274 277 258
222 231 232 228 232 234 235 242 243 252 256 252 239 221 215 221 215 207 209 202 198 216 239 226 219 247 261 256 257 261 269 270
226 228 232 233 230 240 243 246 250 247 245 243 248 235 221 221 225 225 217 214 193 203 236 230 235 253 252 241 247 244 253 262
230 225 223 227 230 230 237 242 244 247 249 236 222 235 225 229 228 229 226 212 203 200 219 225 225 236 254 235 254 234 248 261
232 224 227 230 231 232 236 241 243 245 248 226 212 229 220 217 220 227 225 230 226 229 223 215 220 230 255 242 246 247 243 253
235 233 224 227 229 230 237 241 244 246 253 242 212 220 229 223 221 230 232 237 234 232 243 235 224 219 234 250 236 252 252 265
234 234 225 227 232 236 235 238 244 244 247 250 224 221 221 223 222 229 240 236 243 246 240 247 242 247 231 246 253 258 246 252
231 231 231 226 234 236 234 235 239 240 242 247 241 225 227 232 234 234 239 244 248 252 248 238 229 244 240 237 234 237 240 237
230 230 230 229 225 228 232 232 234 239 236 239 240 238 225 231 235 236 236 241 245 249 251 257 252 257 250 234 236 232 242 246
228 230 232 231 232 228 227 232 233 235 236 236 237 235 232 225 229 236 239 240 243 248 252 258 260 256 246 239 236 237 244 249
224 229 229 231 232 235 232 229 231 236 236 237 241 238 241 231 226 234 236 239 243 246 250 253 257 253 245 252 256 262 256 252
220 225 228 228 230 235 239 231 232 234 235 234 240 246 241 241 234 229 233 234 238 239 243 250 253 255 258 258 262 265 259 254
221 223 226 226 225 222 230 235 231 234 234 235 238 242 246 241 241 229 233 237 241 245 245 244 248 249 237 251 257 261 259 261
228 224 222 222 221 213 213 220 228 228 232 236 236 240 245 249 243 233 228 230 238 240 240 246 244 249 250 251 245 247 250 249
229 221 221 217 215 210 209 210 219 228 231 235 235 235 241 246 249 243 232 237 243 244 245 243 243 241 248 251 249 251 251 252
217 201 210 207 211 213 213 214 217 224 226 238 234 234 236 242 246 246 248 248 248 253 255 254 253 255 251 251 249 248 252 257
205 203 200 214 219 216 218 212 219 223 230 230 232 233 237 240 244 247 251 253 256 259 260 262 264 262 262 258 258 258 256 253
186 196 196 207 193 171 195 202 217 220 223 225 229 233 235 239 244 249 252 254 256 260 262 265 268 267 263 262 259 261 261 259